Location: Colle San Luigi
(43.5500°N, 13.4167°E)
Time: 10:02:38
(UTC+00:00)

SL-16 R/B - Pass Details

Date: 09 April 2020
Orbit: 842 x 846 km, 71.0° (Epoch: 04 June)

Event Time Altitude Azimuth Distance (km) Brightness Sun altitude
Rises 21:30:37 0° 341° (NNW) 3,413 6.4 -33.9°
Reaches altitude 10° 21:33:19 10° 351° (N) 2,475 5.4 -34.2°
Enters shadow 21:36:56 29° 25° (NNE) 1,500 3.7 -34.5°
